Location: Gebenbach
(49.5378°N, 11.8735°E)
Time: 12:13:13
(UTC+00:00)

BREEZE-M R/B - Pass Details

Date: 29 October 2020
Orbit: 309 x 4522 km, 49.7° (Epoch: 24 November)

Event Time Altitude Azimuth Distance (km) Brightness Sun altitude
Rises 17:48:44 0° 281° (W) 2,531 7.8 -18.9°
Reaches altitude 10° 17:50:20 10° 280° (W) 1,858 6.7 -19.2°
Maximum altitude 17:54:21 79° 194° (SSW) 859 3.7 -19.8°
Enters shadow 17:57:48 32° 112° (ESE) 1,850 4.9 -20.4°
